Merced, CA

6:25 AM PDT on April 22, 2018 (GMT -0700)
Merced Municipal-Macready

Weather History for KMCE - July, 2013

Change the Weather History Date:

Thursday, July 18, 2013

  Actual Average Record
Temperature  
Mean Temperature 78 °F 78 °F  
Max Temperature 98 °F 95 °F 106 °F (2009)
Min Temperature 58 °F 61 °F 55 °F (2016)
Degree Days  
Heating Degree Days 0    
Month to date heating degree days 0  
Since 1 June heating degree days 0  
Since 1 July heating degree days 0  
Cooling Degree Days 13    
Month to date cooling degree days 303  
Year to date cooling degree days 896  
Since 1 June cooling degree days 659  
Growing Degree Days 28 (Base 50)    
Moisture  
Dew Point 50 °F    
Average Humidity 44    
Maximum Humidity 72    
Minimum Humidity 15    
Precipitation  
Precipitation 0.00 in 0.00 in 0.00 in (2018)
Month to date precipitation T 0.00  
Year to date precipitation 2.78 8.68  
Since 1 July precipitation T  
Snow  
Snow 0.00 in - - ()
Month to date snowfall 0.0  
Since 1 June snowfall 0.0  
Since 1 July snowfall 0.0  
Snow Depth 0.00 in    
Sea Level Pressure  
Sea Level Pressure 29.93 in    
Wind  
Wind Speed 7 mph (NW)    
Max Wind Speed 14 mph    
Max Gust Speed -    
Visibility 10 miles    
Events      
T = Trace of Precipitation, MM = Missing Value Source: NWS Daily Summary

Daily Weather History Graph

Daily Weather History Graph

Search for Another Location

Airport or City:

Astronomy

Jul. 18, 2013 Rise Set
Actual Time 5:55 AM PDT 8:20 PM PDT
Civil Twilight 5:25 AM PDT 8:50 PM PDT
Nautical Twilight 4:48 AM PDT 9:27 PM PDT
Astronomical Twilight 4:08 AM PDT 10:07 PM PDT
Moon 4:23 PM PDT (7/18) 1:49 AM PDT (7/18)
Length of Visible Light 15h 24m
Length of Day
14h 24m
Waxing Gibbous, 78% of the Moon is Illuminated
Jul 18
Waxing Gibbous
Jul 22
Full
Jul 29
Last Quarter
Aug 6
New
Aug 14
First Quarter

Hourly Weather History & Observations

Time (PDT) Temp. Dew Point Humidity Pressure Visibility Wind Dir Wind Speed Gust Speed Precip Events Conditions
12:53 AM 66.9 °F 54.0 °F 63% 29.99 in 10.0 mi NNW 6.9 mph - N/A   Clear
1:53 AM 68.0 °F 52.0 °F 56% 29.98 in 10.0 mi NW 4.6 mph - N/A   Clear
2:53 AM 64.0 °F 52.0 °F 65% 29.96 in 10.0 mi WNW 3.5 mph - N/A   Clear
3:53 AM 62.1 °F 52.0 °F 70% 29.96 in 10.0 mi WNW 3.5 mph - N/A   Clear
4:53 AM 60.1 °F 52.0 °F 75% 29.96 in 10.0 mi West 3.5 mph - N/A   Clear
5:53 AM 61.0 °F 51.1 °F 70% 29.97 in 10.0 mi WNW 5.8 mph - N/A   Clear
6:53 AM 62.1 °F 52.0 °F 70% 29.99 in 10.0 mi NNW 6.9 mph - N/A   Clear
7:53 AM 69.1 °F 52.0 °F 54% 30.00 in 10.0 mi NNW 5.8 mph - N/A   Clear
8:53 AM 72.0 °F 51.1 °F 48% 30.01 in 10.0 mi North 5.8 mph - N/A   Clear
9:53 AM 77.0 °F 52.0 °F 42% 29.99 in 10.0 mi North 6.9 mph - N/A   Clear
10:53 AM 81.0 °F 52.0 °F 36% 29.98 in 10.0 mi NW 9.2 mph - N/A   Clear
11:53 AM 86.0 °F 52.0 °F 31% 29.97 in 10.0 mi NNW 6.9 mph - N/A   Clear
12:53 PM 89.1 °F 50.0 °F 26% 29.95 in 10.0 mi NW 6.9 mph - N/A   Clear
1:53 PM 93.0 °F 46.9 °F 20% 29.93 in 10.0 mi WNW 6.9 mph - N/A   Clear
2:53 PM 95.0 °F 45.0 °F 18% 29.91 in 10.0 mi NW 9.2 mph - N/A   Clear
3:53 PM 97.0 °F 41.0 °F 14% 29.88 in 10.0 mi NW 12.7 mph - N/A   Clear
4:53 PM 97.0 °F 43.0 °F 16% 29.87 in 10.0 mi NW 11.5 mph - N/A   Clear
5:53 PM 96.1 °F 44.1 °F 17% 29.86 in 10.0 mi NNW 13.8 mph - N/A   Clear
6:53 PM 93.9 °F 48.0 °F 21% 29.86 in 10.0 mi NNW 11.5 mph - N/A   Clear
7:53 PM 89.1 °F 51.1 °F 27% 29.86 in 10.0 mi NNW 9.2 mph - N/A   Clear
8:53 PM 82.0 °F 51.1 °F 34% 29.86 in 10.0 mi North - - N/A   Clear
9:53 PM 77.0 °F 53.1 °F 43% 29.87 in 10.0 mi NW 5.8 mph - N/A   Clear
10:53 PM 75.9 °F 51.1 °F 42% 29.88 in 10.0 mi NNW 5.8 mph - N/A   Clear
11:53 PM 71.1 °F 52.0 °F 51% 29.88 in 10.0 mi West 4.6 mph - N/A   Clear